FW2834 Weather Reports


time (UTC)temp
C
wind
direction
speed
KPH
gust
KPH
rain 1hr
cm
rain 24hr
cm
rain mn
cm
humidity
%
barometer
mb
20260506082039 8 324 1.6 12.9 0.05 1.42 0.23 82 1006.7
20260506081538 8 296 0.0 12.9 0.05 1.42 0.23 82 1006.6
20260506081037 8 321 0.0 0.0 0.05 1.42 0.23 82 1006.8
20260506080537 8 321 0.0 0.0 0.05 1.42 0.23 82 1006.8
20260506073041 8 347 1.6 3.2 0.03 1.37 0.18 81 1006.4
20260506072534 8 341 0.0 4.8 0.05 1.37 0.18 81 1006.6
20260506072034 8 340 1.6 6.4 0.05 1.37 0.18 81 1006.8
20260506071534 9 314 1.6 6.4 0.05 1.37 0.18 81 1006.7
20260506071031 9 304 3.2 4.8 0.05 1.37 0.18 81 1006.5
20260506070528 9 304 1.6 4.8 0.05 1.37 0.18 81 1006.3
20260506062021 10 331 0.0 4.8 0.05 1.32 0.13 80 1005.6
20260506061528 10 340 0.0 6.4 0.08 1.32 0.13 80 1005.6
20260506061019 10 11 0.0 6.4 0.08 1.32 0.13 81 1005.8
20260506060519 11 302 0.0 0.0 0.08 1.32 0.13 81 1005.9
20260506051005 15 128 0.0 0.0 0.05 1.24 0.05 85 1005.2
20260506050506 15 128 0.0 0.0 0.05 1.24 0.05 85 1005.1
20260506045003 15 128 0.0 0.0 0.05 1.22 0.03 85 1005.0
20260506044504 15 128 0.0 0.0 0.05 1.22 0.03 84 1005.1
20260506044003 15 128 0.0 1.6 0.05 1.22 0.03 84 1005.1
20260506043502 15 128 0.0 1.6 0.05 1.22 0.03 84 1005.2
20260506043002 15 128 0.0 0.0 0.05 1.22 0.03 84 1005.2
20260506042505 15 128 0.0 0.0 0.05 1.22 0.03 84 1005.4
20260506042003 15 128 0.0 0.0 0.03 1.19 0.00 84 1005.2
20260506041602 15 128 0.0 0.0 0.05 1.19 0.00 84 1005.2
20260506041059 15 128 0.0 0.0 0.05 1.19 0.00 84 1005.0
20260506040558 15 128 0.0 1.6 0.05 1.19 0.00 84 1004.9
20260506040104 15 128 0.0 1.6 0.05 1.19 1.19 84 1004.8
20260506035557 15 128 0.0 0.0 0.05 1.19 1.19 84 1004.9
20260506035057 15 128 0.0 1.6 0.08 1.19 1.19 83 1005.0
20260506034611 15 128 0.0 1.6 0.05 1.17 1.17 83 1005.0
20260506034057 15 128 0.0 1.6 0.05 1.17 1.17 83 1005.1
20260506033557 15 128 0.0 3.2 0.05 1.17 1.17 82 1005.2
20260506033056 15 128 0.0 3.2 0.05 1.17 1.17 82 1005.2
20260506032556 15 128 0.0 1.6 0.08 1.17 1.17 82 1005.3
20260506032058 15 128 0.0 1.6 0.08 1.17 1.17 81 1005.5
20260506031604 15 128 0.0 1.6 0.05 1.14 1.14 81 1005.4
20260506031057 15 128 0.0 1.6 0.08 1.14 1.14 81 1005.4
20260506030555 15 128 0.0 0.0 0.08 1.14 1.14 81 1005.8
20260506030056 15 128 0.0 0.0 0.08 1.14 1.14 81 1005.7
20260506025554 15 128 0.0 0.0 0.10 1.14 1.14 80 1005.6
20260506025054 15 128 0.0 1.6 0.08 1.12 1.12 80 1005.6
20260506024555 15 128 0.0 1.6 0.10 1.12 1.12 80 1006.1
20260506024054 15 128 0.0 0.0 0.10 1.12 1.12 80 1006.3
20260506023554 15 128 0.0 0.0 0.10 1.12 1.12 80 1006.4
20260506023054 15 128 0.0 0.0 0.10 1.09 1.09 80 1006.3
20260506022553 15 128 0.0 0.0 0.13 1.09 1.09 79 1006.3
20260506022053 15 128 0.0 0.0 0.13 1.09 1.09 79 1006.3
20260506021557 15 128 0.0 1.6 0.15 1.09 1.09 79 1006.2
20260506021053 15 128 0.0 1.6 0.15 1.07 1.07 79 1006.1
20260506020553 15 128 0.0 1.6 0.18 1.07 1.07 79 1006.3
20260506020055 15 128 0.0 0.0 0.20 1.07 1.07 79 1006.4
20260506015552 15 128 0.0 0.0 0.20 1.04 1.04 79 1006.3
20260506015055 15 128 0.0 0.0 0.20 1.04 1.04 79 1006.3
20260506014552 15 128 0.0 0.0 0.18 1.02 1.02 79 1006.2
20260506014053 15 128 0.0 0.0 0.18 1.02 1.02 79 1006.2
20260506013552 15 128 0.0 0.0 0.18 1.02 1.02 79 1006.2
20260506013051 15 128 0.0 0.0 0.15 0.99 0.99 79 1006.1
20260506012551 15 128 0.0 0.0 0.13 0.97 0.97 79 1005.9
20260506012052 15 128 0.0 1.6 0.13 0.97 0.97 79 1006.0
20260506011551 15 128 0.0 1.6 0.10 0.94 0.94 79 1005.9
20260506011053 15 128 0.0 1.6 0.08 0.91 0.91 79 1005.9
20260506010550 15 128 0.0 1.6 0.05 0.89 0.89 78 1006.0
20260506010056 15 128 0.0 0.0 0.03 0.86 0.86 78 1006.1
20260506005550 15 128 0.0 0.0 0.03 0.84 0.84 78 1005.7
20260506005050 15 128 0.0 1.6 0.03 0.84 0.84 78 1005.6
20260506004551 15 128 0.0 1.6 0.03 0.84 0.84 78 1005.4
20260506004049 15 128 0.0 1.6 0.05 0.84 0.84 78 1005.5
20260506003549 15 128 0.0 1.6 0.05 0.84 0.84 78 1005.4
20260506003049 15 128 0.0 3.2 0.05 0.84 0.84 78 1005.5
20260506002551 15 128 0.0 3.2 0.05 0.84 0.84 78 1005.5
20260506002049 15 128 0.0 0.0 0.05 0.84 0.84 78 1005.5
20260506001549 16 128 0.0 1.6 0.05 0.84 0.84 78 1005.3
20260506001049 16 128 0.0 1.6 0.05 0.84 0.84 78 1005.2
20260506000549 16 128 0.0 1.6 0.05 0.84 0.84 78 1005.0
20260506000048 16 128 0.0 1.6 0.05 0.84 0.84 78 1005.1
20260505235549 16 128 0.0 3.2 0.03 0.81 0.81 78 1005.3
20260505235048 16 128 0.0 3.2 0.03 0.81 0.81 78 1005.4
20260505234556 16 129 0.0 3.2 0.03 0.81 0.81 78 1005.2
20260505234047 16 129 0.0 3.2 0.00 0.79 0.79 78 1005.5
20260505233547 16 129 0.0 1.6 0.00 0.79 0.79 78 1005.5
20260505233059 16 129 0.0 0.0 0.00 0.79 0.79 78 1005.5
20260505232547 16 129 0.0 1.6 0.00 0.79 0.79 78 1005.4
20260505232049 16 129 0.0 4.8 0.00 0.79 0.79 78 1005.4
20260505231552 16 129 0.0 4.8 0.00 0.79 0.79 78 1005.6
20260505231046 16 128 0.0 1.6 0.00 0.79 0.79 77 1005.6
20260505230548 16 128 0.0 1.6 0.00 0.79 0.79 77 1005.7
20260505230046 16 128 0.0 4.8 0.00 0.79 0.79 77 1005.7
20260505225547 16 129 0.0 8.0 0.00 0.79 0.79 77 1005.8
20260505225046 16 131 0.0 8.0 0.00 0.79 0.79 77 1005.8
20260505224546 16 159 1.6 9.7 0.03 0.79 0.79 76 1006.0
20260505224048 16 138 1.6 9.7 0.03 0.79 0.79 76 1006.0
20260505223545 16 125 0.0 3.2 0.03 0.79 0.79 76 1006.2
20260505223052 16 125 0.0 4.8 0.03 0.79 0.79 76 1006.2
20260505222547 16 126 0.0 6.4 0.05 0.79 0.79 76 1006.2
20260505222044 16 126 0.0 6.4 0.05 0.79 0.79 75 1006.2
20260505221546 16 151 0.0 1.6 0.08 0.79 0.79 75 1006.3
20260505221044 16 151 0.0 8.0 0.10 0.79 0.79 75 1006.4
20260505220548 16 151 0.0 8.0 0.13 0.79 0.79 74 1006.5
20260505220043 16 340 0.0 1.6 0.15 0.79 0.79 74 1006.6
20260505215543 16 340 0.0 1.6 0.18 0.79 0.79 74 1006.6
20260505215044 16 340 0.0 1.6 0.18 0.79 0.79 74 1006.6
20260505214549 16 340 0.0 1.6 0.18 0.76 0.76 74 1006.6
20260505214043 16 328 0.0 1.6 0.20 0.76 0.76 73 1006.6
20260505213543 16 326 0.0 1.6 0.23 0.76 0.76 73 1006.6
20260505213043 16 326 0.0 3.2 0.23 0.76 0.76 73 1006.6
20260505212543 16 316 0.0 3.2 0.23 0.71 0.71 72 1006.6
20260505212042 16 346 0.0 3.2 0.25 0.71 0.71 72 1006.6
20260505211542 16 347 0.0 3.2 0.23 0.71 0.71 72 1006.6
20260505211045 16 48 0.0 4.8 0.25 0.69 0.69 72 1006.6
20260505210541 16 49 0.0 4.8 0.23 0.66 0.66 72 1006.6
20260505210042 17 65 0.0 3.2 0.25 0.64 0.64 71 1006.6
20260505205542 17 309 0.0 1.6 0.30 0.61 0.61 71 1006.6
20260505205041 17 309 0.0 3.2 0.38 0.58 0.58 71 1006.7
20260505204545 17 309 0.0 4.8 0.43 0.56 0.56 71 1006.7
20260505204041 17 323 0.0 4.8 0.43 0.56 0.56 70 1006.8
20260505203543 17 307 0.0 4.8 0.41 0.53 0.53 70 1006.8
20260505203041 17 248 0.0 4.8 0.38 0.51 0.51 70 1006.8
20260505202544 18 215 0.0 3.2 0.36 0.48 0.48 69 1006.9
20260505202042 18 213 0.0 1.6 0.36 0.48 0.48 68 1006.8
20260505201540 18 227 0.0 4.8 0.33 0.46 0.46 68 1006.9
20260505201040 18 226 0.0 4.8 0.30 0.43 0.43 67 1006.7
20260505200540 19 234 0.0 3.2 0.28 0.41 0.41 67 1006.7
20260505200046 19 238 0.0 3.2 0.25 0.38 0.38 66 1006.8
20260505195539 20 238 0.0 8.0 0.15 0.28 0.28 65 1006.8
20260505195038 20 229 3.2 11.3 0.05 0.18 0.18 64 1007.0
20260505194539 20 254 3.2 11.3 0.00 0.13 0.13 62 1006.9
20260505194038 20 286 0.0 6.4 0.00 0.13 0.13 62 1006.6
20260505193538 20 205 0.0 6.4 0.00 0.13 0.13 62 1006.6
20260505193037 20 191 0.0 3.2 0.00 0.13 0.13 62 1006.5
20260505192538 20 117 0.0 6.4 0.00 0.13 0.13 62 1006.6
20260505192036 20 46 0.0 6.4 0.00 0.13 0.13 61 1006.5
20260505191540 20 190 0.0 4.8 0.00 0.13 0.13 62 1006.6
20260505191037 20 190 1.6 4.8 0.00 0.13 0.13 62 1006.6
20260505190534 20 53 0.0 4.8 0.00 0.13 0.13 61 1006.6
20260505190038 20 59 0.0 9.7 0.00 0.13 0.13 61 1006.7
20260505185535 20 298 0.0 9.7 0.00 0.13 0.13 62 1006.6
20260505185034 20 328 0.0 12.9 0.00 0.13 0.13 62 1006.6
20260505184534 20 137 1.6 11.3 0.00 0.13 0.13 62 1006.8
20260505184034 20 91 0.0 6.4 0.00 0.13 0.13 62 1006.8
20260505183533 20 174 0.0 8.0 0.00 0.13 0.13 61 1006.9
20260505183038 20 182 0.0 8.0 0.00 0.13 0.13 61 1006.9
20260505182533 20 306 1.6 6.4 0.00 0.13 0.13 61 1007.0
20260505182032 20 298 1.6 6.4 0.00 0.13 0.13 60 1007.0
20260505181532 20 49 0.0 6.4 0.00 0.13 0.13 61 1007.2
20260505181031 20 135 0.0 6.4 0.00 0.13 0.13 60 1007.4
20260505180531 20 123 1.6 4.8 0.00 0.13 0.13 60 1007.2
20260505180034 19 55 1.6 12.9 0.00 0.13 0.13 61 1007.3
20260505175531 19 153 1.6 12.9 0.00 0.13 0.13 61 1007.2
20260505175031 19 140 0.0 6.4 0.00 0.13 0.13 61 1007.3
20260505174538 19 240 0.0 6.4 0.00 0.13 0.13 62 1007.5
20260505174029 19 53 0.0 6.4 0.00 0.13 0.13 62 1007.5
20260505173527 19 90 0.0 4.8 0.00 0.13 0.13 62 1007.5
20260505173028 19 90 1.6 4.8 0.00 0.13 0.13 61 1007.6
20260505172527 19 86 1.6 4.8 0.00 0.13 0.13 61 1007.6
20260505172028 19 305 0.0 9.7 0.00 0.13 0.13 61 1007.6
20260505171527 18 125 1.6 9.7 0.00 0.13 0.13 60 1007.6
20260505171029 18 130 1.6 6.4 0.00 0.13 0.13 60 1007.6
20260505170526 18 162 0.0 8.0 0.00 0.13 0.13 60 1007.7
20260505170026 18 134 1.6 8.0 0.00 0.13 0.13 61 1007.7
20260505165526 18 30 0.0 3.2 0.00 0.13 0.13 61 1007.7
20260505165126 18 30 0.0 4.8 0.00 0.13 0.13 60 1007.6
20260505164526 18 349 0.0 4.8 0.00 0.13 0.13 61 1007.7
20260505164028 19 297 0.0 4.8 0.00 0.13 0.13 61 1007.6
20260505163528 19 350 0.0 0.0 0.00 0.13 0.13 61 1007.6
20260505163026 19 288 0.0 0.0 0.00 0.13 0.13 61 1007.7
20260505162525 19 288 0.0 1.6 0.00 0.13 0.13 62 1007.8
20260505162025 19 288 0.0 4.8 0.00 0.13 0.13 62 1007.7
20260505161525 19 288 0.0 4.8 0.00 0.13 0.13 62 1007.8
20260505161029 19 244 0.0 4.8 0.00 0.13 0.13 62 1007.7
20260505160525 19 313 0.0 4.8 0.00 0.13 0.13 62 1007.7
20260505153021 18 83 0.0 6.4 0.00 0.13 0.13 66 1007.3
20260505152521 18 84 0.0 6.4 0.00 0.13 0.13 66 1007.3
20260505152022 18 148 1.6 11.3 0.00 0.13 0.13 66 1007.3
20260505151520 17 346 3.2 11.3 0.00 0.13 0.13 67 1007.3
20260505151020 17 204 0.0 6.4 0.00 0.13 0.13 69 1007.5
20260505150518 17 135 0.0 6.4 0.00 0.13 0.13 69 1007.5
20260505140512 15 109 0.0 6.4 0.00 0.13 0.13 77 1006.9
20260505125006 15 64 0.0 3.2 0.00 0.13 0.13 78 1007.3
20260505124505 15 51 0.0 1.6 0.00 0.13 0.13 77 1007.5
20260505124005 15 78 0.0 1.6 0.00 0.13 0.13 77 1007.6
20260505123505 15 78 0.0 4.8 0.00 0.13 0.13 77 1007.7
20260505123002 14 78 0.0 4.8 0.03 0.13 0.13 76 1007.6
20260505122502 14 152 0.0 1.6 0.03 0.13 0.13 76 1007.7
20260505122002 14 153 0.0 1.6 0.03 0.13 0.13 76 1007.8
20260505121501 14 153 0.0 3.2 0.03 0.13 0.13 75 1007.8
20260505121103 14 153 0.0 3.2 0.03 0.13 0.13 75 1007.7
20260505120559 14 155 0.0 3.2 0.03 0.13 0.13 74 1007.9
20260505120116 14 155 0.0 3.2 0.05 0.13 0.13 74 1008.0
20260505115557 14 96 0.0 3.2 0.05 0.13 0.13 74 1007.9
20260505115100 14 95 0.0 1.6 0.05 0.13 0.13 73 1007.9
20260505114554 14 95 0.0 1.6 0.05 0.13 0.13 73 1007.9
20260505114054 14 95 0.0 1.6 0.05 0.13 0.13 73 1007.9
20260505113553 14 95 0.0 1.6 0.05 0.13 0.13 73 1007.7
20260505113059 14 95 0.0 3.2 0.05 0.10 0.10 73 1007.1
20260505112557 14 96 0.0 3.2 0.08 0.10 0.10 73 1006.9
20260505112051 14 95 0.0 3.2 0.10 0.10 0.10 72 1007.0
20260505111549 14 93 0.0 3.2 0.10 0.10 0.10 72 1007.0
20260505111048 15 15 0.0 1.6 0.10 0.10 0.10 71 1007.2
20260505110548 15 15 0.0 0.0 0.10 0.10 0.10 71 1007.2
20260505102040 16 14 0.0 3.2 0.00 0.00 0.00 66 1007.7
20260505101539 16 14 0.0 6.4 0.00 0.00 0.00 66 1007.8
20260505101039 16 15 0.0 6.4 0.00 0.00 0.00 65 1007.9
20260505100539 16 319 1.6 8.0 0.00 0.00 0.00 64 1008.0
20260505100038 16 319 1.6 8.0 0.00 0.00 0.00 63 1008.0
20260505095537 16 316 1.6 8.0 0.00 0.00 0.00 62 1007.7
20260505095036 16 311 1.6 4.8 0.00 0.00 0.00 61 1007.6
20260505094537 16 168 0.0 1.6 0.00 0.00 0.00 60 1007.5
20260505094034 16 168 0.0 0.0 0.00 0.00 0.00 60 1007.2
20260505093533 16 168 0.0 0.0 0.00 0.00 0.00 60 1007.1
20260505093033 16 168 0.0 0.0 0.00 0.00 0.00 60 1007.1
20260505092534 16 168 0.0 0.0 0.00 0.00 0.00 60 1006.9
20260505092032 16 168 0.0 0.0 0.00 0.00 0.00 60 1006.8
20260505091531 16 168 0.0 4.8 0.00 0.00 0.00 60 1006.8
20260505091033 16 168 0.0 4.8 0.00 0.00 0.00 60 1006.6
20260505090630 16 119 0.0 1.6 0.00 0.00 0.00 60 1006.6
20260505090035 16 119 0.0 3.2 0.00 0.00 0.00 60 1006.5
20260505085531 16 119 0.0 3.2 0.00 0.00 0.00 60 1006.4
20260505085028 16 119 0.0 4.8 0.00 0.00 0.00 59 1006.4
20260505084528 16 119 0.0 3.2 0.00 0.00 0.00 60 1006.3
20260505084027 16 119 0.0 4.8 0.00 0.00 0.00 60 1006.3
20260505083526 16 119 0.0 4.8 0.00 0.00 0.00 59 1006.3
20260505083025 16 119 0.0 3.2 0.00 0.00 0.00 59 1006.2
20260505082525 16 119 0.0 3.2 0.00 0.00 0.00 59 1006.1